Flag for Germany Past Weather in Brandenburg an der Havel, Brandenburg, Germany — Yesterday and Last 2 Weeks

Now
72 °F

Passing clouds.


Feels Like: 77 °F
Forecast: 54 / 74 °F
Wind: 5 mph from Northwest

Location: Berlin-Tegel

Current Time: Jun 28, 2016 at 6:59:22 PM

Latest Report: Jun 28, 2016 at 6:20 PM


Visibility: N/A

Pressure: 30.01 "Hg

Humidity: 38%

Dew Point: 45 °F

Location of Brandenburg an der HavelLocation

Past Weather in Brandenburg an der Havel — Graph

°F

Brandenburg an der Havel Temperature Yesterday

Maximum temperature yesterday: 75 °F (at 4:20 PM)
Minimum temperature yesterday: 55 °F (at 2:20 AM)
Average temperature yesterday: 66 °F

High & Low Weather Summary for the Past Weeks

 TemperatureHumidityPressure
High95 °F (Jun 24, 3:50 PM)94% (Jun 14, 2:20 AM)30.24 "Hg (Jun 14, 2:20 AM)
Low48 °F (Jun 20, 4:50 AM)23% (Jun 24, 4:20 PM)29.47 "Hg (Jun 14, 4:20 PM)
Average67 °F66%29.91 "Hg
* Reported Jun 13 5:20 PM — Jun 28 5:20 PM, Brandenburg an der Havel, Weather by CustomWeather, © 2016

Note: Actual official high and low records may vary slightly from our data, if they occured in-between our weather recording intervals... More about our weather records

Advertising

Brandenburg an der Havel Weather History for the Previous 24 Hours

Scroll right to see more
 ConditionsComfort  
Time TempWeatherWind HumidityBarometerVisibility
5:20 PM
Tue, Jun 28
72 °FPassing clouds.7 mph41%30.01 "HgN/A
4:50 PM72 °FPassing clouds.7 mph41%30.01 "HgN/A
4:20 PM70 °FPassing clouds.8 mph43%30.01 "HgN/A
3:50 PM70 °FScattered clouds.5 mph46%30.01 "HgN/A
3:20 PM72 °FScattered clouds.8 mph44%30.01 "HgN/A
2:50 PM70 °FScattered clouds.10 mph50%30.01 "HgN/A
2:20 PM72 °FScattered clouds.9 mph53%30.04 "HgN/A
1:50 PM66 °FScattered clouds.8 mph56%30.04 "HgN/A
1:20 PM70 °FScattered clouds.8 mph50%30.04 "HgN/A
12:50 PM68 °FScattered clouds.9 mph53%30.04 "HgN/A
12:20 PM66 °FPartly sunny.9 mph56%30.04 "HgN/A
11:50 AM66 °FPartly sunny.7 mph56%30.04 "HgN/A
11:20 AM66 °FPassing clouds.8 mph60%30.07 "HgN/A
10:50 AM64 °FBroken clouds.9 mph68%30.04 "HgN/A
10:20 AM64 °FBroken clouds.10 mph68%30.04 "HgN/A
9:50 AM63 °FPartly sunny.14 mph77%30.04 "HgN/A
9:20 AM63 °FScattered clouds.12 mph83%30.04 "HgN/A
8:50 AM64 °FBroken clouds.7 mph83%30.01 "HgN/A
8:20 AM63 °FBroken clouds.9 mph88%30.01 "HgN/A
7:50 AM63 °FLight rain. Partly sunny.10 mph83%30.01 "HgN/A
7:20 AM64 °FPartly sunny.12 mph73%30.01 "HgN/A
6:50 AM64 °FPartly sunny.6 mph73%30.01 "HgN/A
6:20 AM63 °FBroken clouds.3 mph77%30.01 "HgN/A
5:50 AM63 °FBroken clouds.5 mph77%30.01 "HgN/A
5:20 AM63 °FPassing clouds.6 mph77%30.01 "HgN/A
4:50 AM63 °FLight rain. Partly cloudy.7 mph77%30.01 "HgN/A
4:20 AM64 °FPassing clouds.6 mph68%30.01 "HgN/A
3:50 AM63 °FClear.7 mph68%30.01 "Hg10 mi
3:20 AM64 °FClear.7 mph64%30.01 "Hg10 mi
2:50 AM63 °FClear.7 mph68%30.01 "Hg10 mi
2:20 AM63 °FClear.6 mph68%30.01 "Hg10 mi
1:50 AM63 °FClear.6 mph64%30.01 "Hg10 mi
1:20 AM63 °FClear.6 mph68%30.01 "Hg10 mi
12:50 AM63 °FClear.5 mph64%30.01 "Hg10 mi
12:20 AM63 °FClear.2 mph59%30.01 "Hg10 mi
11:50 PM
Mon, Jun 27
63 °FClear.No wind59%30.01 "Hg10 mi
11:20 PM63 °FClear.2 mph59%30.01 "Hg10 mi
10:50 PM66 °FClear.3 mph49%30.01 "Hg10 mi
10:20 PM66 °FSunny.5 mph49%30.01 "Hg10 mi
9:50 PM68 °FSunny.5 mph43%30.01 "Hg10 mi
9:20 PM68 °FSunny.7 mph43%30.01 "Hg10 mi
8:50 PM70 °FSunny.8 mph40%30.01 "Hg10 mi
8:20 PM72 °FSunny.8 mph36%30.01 "Hg10 mi
7:50 PM72 °FSunny.12 mph36%30.01 "Hg10 mi
7:20 PM73 °FSunny.13 mph33%30.01 "Hg10 mi
6:50 PM75 °FSunny.13 mph29%30.01 "Hg10 mi
6:20 PM73 °FPassing clouds.13 mph31%30.01 "HgN/A
Weather by CustomWeather, © 2016

See weather overviewHow to use our weather pages